Weather History for Westhampton Beach, NY

Change the Weather History Date:

Saturday, December 15, 2012

  Actual Average Record
Temperature  
Mean Temperature 34 °F -  
Max Temperature 46 °F 43 °F 57 °F (2001)
Min Temperature 21 °F 25 °F 3 °F (2005)
Degree Days  
Heating Degree Days 32    
Moisture  
Dew Point 25 °F    
Average Humidity 70    
Maximum Humidity 89    
Minimum Humidity 46    
Precipitation  
Precipitation 0.00 in - - ()
Sea Level Pressure  
Sea Level Pressure 30.28 in    
Wind  
Wind Speed 2 mph (NNE)    
Max Wind Speed 8 mph    
Max Gust Speed -    
Visibility 10 miles    
Events      
Averages and records for this station are not official NWS values.
T = Trace of Precipitation, MM = Missing Value Source: NWS Daily Summary

Daily Weather History Graph

Daily Weather History Graph

Search for Another Location

Airport:

Trip Planner

Search our weather history database for the weather conditions in past years. The results will help you decide how hot, cold, wet, or windy it might be!

Date:

Astronomy

Dec. 15, 2012 Rise Set
Actual Time 7:08 AM EST 4:23 PM EST
Civil Twilight 6:37 AM EST 4:54 PM EST
Nautical Twilight 6:02 AM EST 5:29 PM EST
Astronomical Twilight 5:29 AM EST 6:02 PM EST
Moon 8:58 AM EST (12/15) 7:25 PM EST (12/15)
Length of Visible Light 10h 17m
Length of Day
9h 15m
Waxing Crescent, 8% of the Moon is Illuminated
Dec 15
Waxing Crescent
Dec 20
First Quarter
Dec 28
Full
Jan 4
Last Quarter
Jan 11
New

Hourly Weather History & Observations

Time (EST) Temp. Windchill Dew Point Humidity Pressure Visibility Wind Dir Wind Speed Gust Speed Precip Events Conditions
12:53 AM 25.0 °F - 21.0 °F 85% 30.24 in 10.0 mi Calm Calm - N/A   Clear
1:53 AM 24.1 °F - 21.0 °F 88% 30.26 in 10.0 mi Calm Calm - N/A   Clear
2:53 AM 21.9 °F - 19.0 °F 89% 30.26 in 10.0 mi Calm Calm - N/A   Clear
3:53 AM 21.9 °F - 19.0 °F 89% 30.26 in 10.0 mi Calm Calm - N/A   Clear
4:53 AM 21.0 °F 14.6 °F 17.1 °F 85% 30.27 in 10.0 mi NNW 4.6 mph - N/A   Clear
5:53 AM 21.0 °F - 16.0 °F 81% 30.28 in 10.0 mi Calm Calm - N/A   Clear
6:53 AM 28.9 °F 22.8 °F 23.0 °F 78% 30.28 in 10.0 mi NNW 5.8 mph - N/A   Clear
7:53 AM 39.0 °F 34.8 °F 27.0 °F 62% 30.30 in 10.0 mi North 5.8 mph - N/A   Clear
8:53 AM 42.1 °F 38.4 °F 28.9 °F 60% 30.32 in 10.0 mi North 5.8 mph - N/A   Clear
9:53 AM 44.1 °F 39.5 °F 28.9 °F 55% 30.33 in 10.0 mi North 8.1 mph - N/A   Clear
10:53 AM 46.9 °F - 27.0 °F 46% 30.32 in 10.0 mi NNE 8.1 mph - N/A   Clear
11:53 AM 46.9 °F - 27.0 °F 46% 30.30 in 10.0 mi Variable 6.9 mph - N/A   Clear
12:53 PM 46.9 °F - 27.0 °F 46% 30.28 in 10.0 mi North 4.6 mph - N/A   Clear
1:53 PM 46.9 °F - 27.0 °F 46% 30.27 in 10.0 mi Variable 3.5 mph - N/A   Clear
2:53 PM 46.9 °F - 28.0 °F 48% 30.27 in 10.0 mi NNE 5.8 mph - N/A   Clear
3:53 PM 42.1 °F - 28.0 °F 58% 30.28 in 10.0 mi Calm Calm - N/A   Clear
4:53 PM 33.1 °F - 24.1 °F 70% 30.27 in 10.0 mi Calm Calm - N/A   Clear
5:53 PM 28.9 °F - 23.0 °F 78% 30.28 in 10.0 mi Calm Calm - N/A   Clear
6:53 PM 28.0 °F - 23.0 °F 81% 30.29 in 10.0 mi Calm Calm - N/A   Clear
7:53 PM 28.9 °F - 24.1 °F 82% 30.30 in 10.0 mi Calm Calm - N/A   Clear
8:53 PM 30.9 °F 27.5 °F 25.0 °F 79% 30.28 in 10.0 mi East 3.5 mph - N/A   Clear
9:53 PM 34.0 °F 31.0 °F 30.0 °F 85% 30.29 in 10.0 mi ENE 3.5 mph - N/A   Clear
10:53 PM 39.9 °F 36.7 °F 32.0 °F 73% 30.27 in 10.0 mi ENE 4.6 mph - N/A   Clear
11:53 PM 41.0 °F 39.0 °F 32.0 °F 70% 30.26 in 10.0 mi East 3.5 mph - N/A   Overcast